This demonstration page uses our WeatherBlox Daily Observations layout. Learn more.

Left ArrowRight Arrow

38.89511, -77.03637

Hourly Observations for May 13, 2019

Temp ( °F °C ) Dew Point ( °F °C ) Humidity (%) Winds ( mph kmh ) Pressure ( in mb ) Visibility ( mi km ) Precip ( " mm )
12:11 am 00:11 Cloudy 52 11.1 48 8.9 86 86 NE 13 20 29.83 1010 10 16 0.00 0.00
12:52 am 00:52 Cloudy 51 10.6 47 8.3 86 86 NE 10 17 29.84 1011 10 16 0.00 0.00
1:52 am 01:52 Cloudy with Mist and Fog 51 10.6 47 8.3 86 86 ENE 15 24 29.81 1010 4 6 0.00 0.00
2:01 am 02:01 Cloudy with Mist and Fog 51 10.6 48 8.9 89 89 ENE 9 15 29.82 1010 4 6 0.00 0.00
2:26 am 02:26 Cloudy with Light Rain 50 10 47 8.3 89 89 NNE 7 11 29.83 1010 6 10 0.01 0.25
2:52 am 02:52 Cloudy with Heavy Rain 50 10 47 8.3 89 89 NE 10 17 29.83 1010 6 10 0.12 3.05
2:58 am 02:58 Cloudy with Rain 50 10 47 8.3 89 89 NE 9 15 29.83 1010 4 6 0.01 0.25
3:30 am 03:30 Cloudy with Rain 50 10 47 8.3 89 89 NE 10 17 29.82 1010 7 11 0.06 1.52
3:32 am 03:32 Cloudy with Light Rain 50 10 47 8.3 89 89 NE 8 13 29.82 1010 6 10 0.06 1.52
3:52 am 03:52 Cloudy with Light Rain 50 10 47 8.3 89 89 NE 7 11 29.82 1010 7 11 0.07 1.78
4:07 am 04:07 Cloudy with Rain 50 10 47 8.3 89 89 NNE 8 13 29.81 1010 5 8 0.03 0.76
4:18 am 04:18 Cloudy with Light Rain 50 10 47 8.3 89 89 NE 10 17 29.80 1009 6 10 0.06 1.52
4:50 am 04:50 Cloudy 50 10 46 8 88 88 N 12 19 29.82 1010 10 16 0.06 1.52
4:52 am 04:52 Cloudy 50 10 46 7.8 86 86 NNE 10 17 29.82 1010 10 16 0.06 1.52
5:52 am 05:52 Cloudy 50 10 47 8.3 89 89 E 12 19 29.80 1009 10 16 0.00 0.03
6:00 am 06:00 Cloudy 50 10 47 8.3 89 89 ENE 8 13 29.80 1009 10 16 0.00 0.00
6:52 am 06:52 Cloudy 51 10.6 47 8.3 86 86 NE 9 15 29.81 1010 10 16 0.00 0.03
7:52 am 07:52 Cloudy with Light Rain 51 10.6 48 8.9 89 89 NNE 9 15 29.83 1010 5 8 0.00 0.03
8:52 am 08:52 Cloudy with Light Rain 52 11.1 48 8.9 86 86 E 7 11 29.82 1010 9 14 0.02 0.51
9:04 am 09:04 Cloudy with Light Rain 51 10.6 47 8.3 86 86 E 5 7 29.83 1010 5 8 0.00 0.03
9:11 am 09:11 Cloudy with Heavy Rain 51 10.6 47 8.3 86 86 ENE 12 19 29.81 1010 3 4 0.04 1.02
9:25 am 09:25 Cloudy with Rain 52 11.1 48 8.9 86 86 ENE 9 15 29.80 1009 5 8 0.09 2.29
9:47 am 09:47 Cloudy with Light Rain 52 11 48 9 88 88 NE 10 17 29.80 1009 9 14 0.11 2.79
9:52 am 09:52 Cloudy with Light Rain 52 11.1 48 8.9 86 86 NE 10 17 29.79 1009 10 16 0.11 2.79
10:08 am 10:08 Cloudy with Light Rain 52 11.1 47 8.3 83 83 E 7 11 29.81 1010 10 16 0.00 0.03
10:38 am 10:38 Cloudy with Light Rain 53 11.7 49 9.4 86 86 NNE 7 11 29.80 1009 10 16 0.04 1.02
10:45 am 10:45 Cloudy 53 11.7 49 9.4 86 86 NE 8 13 29.80 1009 10 16 0.04 1.02
10:52 am 10:52 Cloudy 54 12.2 49 9.4 83 83 NE 8 13 29.79 1009 10 16 0.04 1.02
11:01 am 11:01 Cloudy 54 12.2 49 9.4 83 83 NE 7 11 29.80 1009 10 16 0.00 0.00
11:52 am 11:52 Cloudy 53 11.7 48 8.9 83 83 NNE 7 11 29.79 1009 10 16 0.00 0.00
12:05 pm 12:05 Cloudy with Light Rain 53 11.7 48 8.9 83 83 NNW 8 13 29.82 1010 2 2 0.00 0.03
12:17 pm 12:17 Cloudy with Heavy Rain 53 11.7 49 9.4 86 86 NW 9 15 29.83 1010 3 4 0.15 3.81
12:23 pm 12:23 Cloudy with Light Rain 53 11.7 49 9.4 86 86 NNW 10 17 29.83 1010 3 4 0.15 3.81
12:44 pm 12:44 Cloudy with Light Rain 54 12.2 50 10 87 87 N 9 15 29.82 1010 2 3 0.16 4.06
12:52 pm 12:52 Cloudy with Light Rain 54 12.2 50 10 87 87 N 9 15 29.80 1009 2 3 0.16 4.06
12:54 pm 12:54 Cloudy with Light Rain 54 12.2 50 10 87 87 NE 9 15 29.79 1009 5 8 0.00 0.03
1:00 pm 13:00 Cloudy with Light Rain 54 12.2 50 10 87 87 ENE 10 17 29.78 1008 9 14 0.00 0.03
1:12 pm 13:12 Cloudy with Light Rain 54 12.2 50 10 87 87 ENE 10 17 29.78 1008 8 13 0.00 0.03
1:52 pm 13:52 Mostly Cloudy 57 13.9 51 10.6 81 81 NE 8 13 29.79 1009 10 16 0.00 0.03
2:01 pm 14:01 Cloudy 57 13.9 51 10.6 81 81 ENE 7 11 29.78 1008 10 16 0.00 0.00
2:21 pm 14:21 Cloudy 57 13.9 50 10 78 78 VRB 5 7 29.78 1008 10 16 0.00 0.00
2:52 pm 14:52 Cloudy 58 14.4 49 9.4 72 72 NE 6 9 29.78 1008 10 16 0.00 0.00
3:52 pm 15:52 Cloudy with Light Rain 58 14.4 50 10 75 75 N 7 11 29.78 1009 10 16 0.00 0.03
4:13 pm 16:13 Cloudy with Light Rain 58 14.4 51 10.6 78 78 NNW 8 13 29.78 1008 10 16 0.01 0.25
4:52 pm 16:52 Cloudy with Light Rain 59 15 51 10.6 75 75 VRB 5 7 29.77 1008 10 16 0.01 0.25
5:34 pm 17:34 Mostly Cloudy 59 15 51 10.6 75 75 Calm 29.77 1008 10 16 0.00 0.03
5:52 pm 17:52 Mostly Cloudy 59 15 51 10.6 75 75 NNW 7 11 29.78 1008 10 16 0.00 0.03
6:52 pm 18:52 Mostly Cloudy 59 15 50 10 72 72 NNW 7 11 29.79 1009 10 16 0.00 0.00
7:02 pm 19:02 Mostly Cloudy 60 15.6 50 10 70 70 N 5 7 29.80 1009 10 16 0.00 0.00
7:25 pm 19:25 Partly Cloudy 59 15 50 10 72 72 NNW 6 9 29.80 1009 10 16 0.00 0.00
7:52 pm 19:52 Partly Cloudy 58 14.4 50 10 75 75 N 6 9 29.81 1009 10 16 0.00 0.00
8:42 pm 20:42 Mostly Cloudy 57 13.9 50 10 78 78 NNE 6 9 29.83 1010 10 16 0.00 0.00
8:52 pm 20:52 Cloudy 57 13.9 50 10 78 78 NE 6 9 29.83 1010 10 16 0.00 0.00
9:33 pm 21:33 Mostly Cloudy 56 13.3 51 10.6 84 84 E 6 9 29.84 1011 10 16 0.00 0.00
9:52 pm 21:52 Partly Cloudy 55 12.8 50 10 83 83 ENE 3 6 29.84 1011 10 16 0.00 0.00
10:52 pm 22:52 Partly Cloudy 54 12.2 50 10 87 87 Calm 29.85 1011 10 16 0.00 0.00
11:52 pm 23:52 Cloudy 55 12.8 49 9.4 80 80 Calm 29.85 1011 10 16 0.00 0.00

Powered by AerisWeather